Location: Calberlah
(52.4230°N, 10.6240°E)
Time: 20:34:37
(UTC+00:00)

Cosmos 2082 Rocket - Pass Details

Date: 19 May 2025
Orbit: 832 x 853 km, 71.0° (Epoch: 20 June)

Event Time Altitude Azimuth Distance (km) Brightness Sun altitude
Exits shadow 21:41:47 16° 192° (SSW) 2,040 3.7 -14.9°
Maximum altitude 21:46:13 63° 115° (ESE) 930 2.2 -15.1°
Drops below altitude 10° 21:51:47 10° 36° (NE) 2,459 5.1 -15.4°
Sets 21:54:15 0° 33° (NNE) 3,400 5.9 -15.5°
